GW3555 Weather Reports


Display with metric or nautical units.
time (UTC)temp
F
wind
direction
speed
MPH
gust
MPH
rain 1hr
in
rain 24hr
in
rain mn
in
humidity
%
barometer
mb
20260904090523 50 264 1.0 2.0 0.00 0.00 0.00 88 1010.2
20260904090219 50 246 1.0 3.0 0.00 0.00 0.00 87 1010.2
20260904085538 50 240 1.0 3.0 0.00 0.00 0.00 87 1010.1
20260904085037 50 232 2.0 3.0 0.00 0.00 0.00 86 1010.2
20260904084635 50 248 1.0 3.0 0.00 0.00 0.00 87 1010.3
20260904084026 50 234 1.0 3.0 0.00 0.00 0.00 87 1010.3
20260904083532 50 234 1.0 3.0 0.00 0.00 0.00 87 1010.3
20260904083154 50 242 1.0 3.0 0.00 0.00 0.00 87 1010.3
20260904082530 50 242 2.0 3.0 0.00 0.00 0.00 87 1010.3
20260904082027 50 242 1.0 2.0 0.00 0.00 0.00 88 1010.4
20260904081619 50 242 1.0 3.0 0.00 0.00 0.00 88 1010.4
20260904081034 51 242 1.0 3.0 0.00 0.00 0.00 87 1010.4
20260904080534 51 244 1.0 2.0 0.00 0.00 0.00 87 1010.6
20260904080206 51 244 0.0 2.0 0.00 0.00 0.00 88 1010.5
20260904075853 51 244 0.0 3.0 0.00 0.00 0.00 87 1010.4
20260904075029 51 244 1.0 3.0 0.00 0.00 0.00 87 1010.6
20260904074638 51 244 1.0 3.0 0.00 0.00 0.00 87 1010.4
20260904074046 51 244 2.0 3.0 0.00 0.00 0.00 86 1010.4
20260904073537 51 242 1.0 3.0 0.00 0.00 0.00 86 1010.5
20260904073103 51 232 0.0 3.0 0.00 0.00 0.00 86 1010.4
20260904072527 51 231 1.0 3.0 0.00 0.00 0.00 86 1010.5
20260904072033 52 248 0.0 2.0 0.00 0.00 0.00 86 1010.4
20260904071631 52 229 1.0 2.0 0.00 0.00 0.00 86 1010.3
20260904071029 51 250 1.0 2.0 0.00 0.00 0.00 84 1010.3
20260904070542 51 262 0.0 3.0 0.00 0.00 0.00 88 1010.4
20260904070135 51 248 0.0 3.0 0.00 0.00 0.00 89 1010.3
20260904065528 51 248 1.0 3.0 0.00 0.00 0.00 88 1010.4
20260904065038 51 235 1.0 3.0 0.00 0.00 0.00 88 1010.4
20260904064703 51 240 1.0 3.0 0.00 0.00 0.00 87 1010.3
20260904064038 51 251 1.0 2.0 0.00 0.00 0.00 87 1010.4
20260904063538 51 252 1.0 2.0 0.00 0.00 0.00 89 1010.3
20260904063133 51 252 0.0 2.0 0.00 0.00 0.00 90 1010.3
20260904062530 51 249 1.0 2.0 0.00 0.00 0.00 88 1010.4
20260904062024 51 249 1.0 3.0 0.00 0.00 0.00 88 1010.3
20260904061654 51 252 1.0 3.0 0.00 0.00 0.00 87 1010.2
20260904061035 51 247 1.0 3.0 0.00 0.00 0.00 88 1010.2
20260904060547 51 248 1.0 3.0 0.00 0.00 0.00 88 1010.2
20260904060116 51 252 1.0 3.0 0.00 0.00 0.00 89 1010.3
20260904055525 51 275 1.0 2.0 0.00 0.00 0.00 87 1010.3
20260904055036 51 242 0.0 2.0 0.00 0.00 0.00 87 1010.4
20260904054635 51 265 0.0 0.0 0.00 0.00 0.00 88 1010.2
20260904054044 51 258 0.0 0.0 0.00 0.00 0.00 90 1010.4
20260904053533 51 262 0.0 0.0 0.00 0.00 0.00 91 1010.4
20260904053144 51 258 0.0 1.0 0.00 0.00 0.00 89 1010.3
20260904052542 51 248 0.0 1.0 0.00 0.00 0.00 89 1010.4
20260904052024 51 257 0.0 0.0 0.00 0.00 0.00 88 1010.4
20260904051646 51 261 0.0 0.0 0.00 0.00 0.00 90 1010.4
20260904051117 51 261 0.0 0.0 0.00 0.00 0.00 89 1010.4
20260904050545 51 247 0.0 3.0 0.00 0.00 0.00 89 1010.5
20260904045532 51 237 1.0 3.0 0.00 0.00 0.00 88 1010.5
20260904045037 51 246 2.0 3.0 0.00 0.00 0.00 89 1010.4
20260904044634 51 247 1.0 3.0 0.00 0.00 0.00 89 1010.5
20260904044024 51 229 2.0 4.0 0.00 0.00 0.00 89 1010.5
20260904043554 51 236 2.0 4.0 0.00 0.00 0.00 89 1010.5
20260904043143 51 248 1.0 3.0 0.00 0.00 0.00 89 1010.5
20260904042524 51 246 2.0 3.0 0.00 0.00 0.00 89 1010.5
20260904042017 51 230 1.0 3.0 0.00 0.00 0.00 90 1010.4
20260904041630 51 239 1.0 4.0 0.00 0.00 0.00 89 1010.5
20260904041026 51 294 1.0 4.0 0.00 0.00 0.00 89 1010.4
20260904040544 51 209 0.0 3.0 0.00 0.00 0.00 89 1010.3
20260904040138 51 230 2.0 4.0 0.00 0.00 0.00 90 1010.4
20260904035546 51 225 2.0 4.0 0.00 0.00 0.00 90 1010.4
20260904035032 51 238 0.0 1.0 0.00 0.00 0.00 89 1010.5
20260904034631 51 233 0.0 0.0 0.00 0.00 0.00 90 1010.4
20260904034024 51 248 0.0 0.0 0.00 0.00 0.00 90 1010.3
20260904033540 52 224 0.0 0.0 0.00 0.00 0.00 90 1010.4
20260904033145 51 215 0.0 0.0 0.00 0.00 0.00 90 1010.4
20260904032526 52 236 0.0 0.0 0.00 0.00 0.00 90 1010.4
20260904032025 52 229 0.0 0.0 0.00 0.00 0.00 90 1010.3
20260904031655 52 252 0.0 0.0 0.00 0.00 0.00 90 1010.3
20260904031037 52 244 0.0 0.0 0.00 0.00 0.00 90 1010.2
20260904030543 52 233 0.0 0.0 0.00 0.00 0.00 90 1010.3
20260904030220 52 233 0.0 0.0 0.00 0.00 0.00 90 1010.2
20260904025542 52 208 0.0 3.0 0.00 0.00 0.00 90 1010.2
20260904025031 52 220 0.0 3.0 0.00 0.00 0.00 91 1010.2
20260904024656 52 244 2.0 3.0 0.00 0.00 0.00 92 1010.1
20260904024023 52 249 2.0 3.0 0.00 0.00 0.00 92 1010.1
20260904023540 52 251 1.0 3.0 0.00 0.00 0.00 92 1010.1
20260904023154 52 254 1.0 4.0 0.00 0.00 0.00 91 1010.1
20260904022531 52 246 1.0 3.0 0.00 0.00 0.00 91 1010.1
20260904022045 52 228 1.0 3.0 0.00 0.00 0.00 92 1010.1
20260904021627 52 238 0.0 3.0 0.00 0.00 0.00 90 1010.0
20260904021033 52 239 1.0 3.0 0.00 0.00 0.00 91 1010.0
20260904020528 52 238 1.0 3.0 0.00 0.00 0.00 91 1010.0
20260904020159 52 233 1.0 3.0 0.00 0.00 0.00 91 1009.9
20260904015544 52 236 1.0 2.0 0.00 0.00 0.00 92 1010.1
20260904015050 52 232 1.0 3.0 0.00 0.00 0.00 92 1009.9
20260904014655 52 254 1.0 3.0 0.00 0.00 0.00 91 1009.9
20260904014023 52 248 0.0 0.0 0.00 0.00 0.00 91 1009.9
20260904013542 53 236 0.0 0.0 0.00 0.00 0.00 92 1009.9
20260904013135 53 241 0.0 0.0 0.00 0.00 0.00 92 1010.0
20260904012531 52 264 0.0 0.0 0.00 0.00 0.00 92 1009.9
20260904012045 52 250 0.0 0.0 0.00 0.00 0.00 92 1010.0
20260904011638 53 243 0.0 0.0 0.00 0.00 0.00 93 1010.0
20260904011034 53 244 0.0 0.0 0.00 0.00 0.00 92 1010.0
20260904010544 53 229 0.0 0.0 0.00 0.00 0.00 93 1010.0
20260904010154 52 229 0.0 0.0 0.00 0.00 0.00 92 1010.1
20260904005558 53 245 0.0 0.0 0.00 0.00 0.00 93 1009.9
20260904005028 52 236 0.0 0.0 0.00 0.00 0.00 94 1010.0
20260904004713 52 247 0.0 0.0 0.00 0.00 0.00 94 1010.1
20260904004043 52 242 0.0 0.0 0.00 0.00 0.00 94 1010.0
20260904003533 52 242 0.0 0.0 0.00 0.00 0.00 94 1009.9
20260904003136 52 242 0.0 0.0 0.00 0.00 0.00 93 1010.1
20260904002529 52 242 0.0 2.0 0.00 0.00 0.00 93 1010.1
20260904002045 52 242 1.0 3.0 0.00 0.00 0.00 93 1010.1
20260904001640 52 225 0.0 3.0 0.00 0.00 0.00 95 1010.2
20260904001033 52 262 0.0 2.0 0.00 0.00 0.00 95 1010.2
20260904000544 52 294 0.0 1.0 0.00 0.00 0.00 94 1010.2
20260904000228 52 262 0.0 1.0 0.00 0.00 0.00 94 1010.1
20260903235522 51 261 0.0 1.0 0.00 0.00 0.00 94 1010.1
20260903235045 51 286 0.0 2.0 0.00 0.00 0.00 93 1010.2
20260903234709 51 250 0.0 3.0 0.00 0.00 0.00 93 1010.1
20260903234025 51 267 1.0 3.0 0.00 0.00 0.00 93 1010.3
20260903233530 51 252 1.0 3.0 0.00 0.00 0.00 92 1010.2
20260903233205 51 240 1.0 3.0 0.00 0.00 0.00 92 1010.3
20260903232533 51 274 1.0 4.0 0.00 0.00 0.00 92 1010.2
20260903232037 51 291 1.0 5.0 0.00 0.00 0.00 91 1010.2
20260903231652 51 232 1.0 6.0 0.00 0.00 0.00 88 1010.3
20260903231034 51 193 3.0 8.0 0.00 0.00 0.00 88 1010.4
20260903230541 50 150 3.0 8.0 0.00 0.00 0.00 90 1010.5
20260903230141 50 351 2.0 7.0 0.00 0.00 0.00 88 1010.6
20260903225526 50 232 1.0 4.0 0.00 0.00 0.00 89 1010.7
20260903225033 50 192 1.0 6.0 0.00 0.00 0.00 88 1010.7
20260903224720 51 244 2.0 6.0 0.00 0.00 0.00 88 1010.7
20260903224025 51 218 2.0 6.0 0.00 0.00 0.00 87 1010.8
20260903223526 51 219 2.0 5.0 0.00 0.00 0.00 84 1010.8
20260903223124 52 223 3.0 7.0 0.00 0.00 0.00 81 1010.7
20260903222541 52 236 4.0 7.0 0.00 0.00 0.00 78 1010.5
20260903222040 52 155 2.0 6.0 0.00 0.00 0.00 82 1010.5
20260903221644 53 186 1.0 3.0 0.00 0.00 0.00 86 1010.3
20260903221025 53 315 0.0 4.0 0.00 0.00 0.00 82 1010.3
20260903220544 53 162 0.0 4.0 0.00 0.00 0.00 77 1010.3
20260903220232 54 210 1.0 4.0 0.00 0.00 0.00 78 1010.4
20260903215527 55 193 1.0 6.0 0.00 0.00 0.00 77 1010.2
20260903215044 55 166 2.0 6.0 0.00 0.00 0.00 78 1010.0
20260903214641 55 157 0.0 3.0 0.00 0.00 0.00 80 1010.1
20260903214044 56 171 1.0 5.0 0.00 0.00 0.00 72 1010.1
20260903213524 57 190 1.0 5.0 0.00 0.00 0.00 71 1010.0
20260903213153 59 162 0.0 2.0 0.00 0.00 0.00 68 1009.9
20260903212531 60 109 0.0 3.0 0.00 0.00 0.00 62 1009.8
20260903212025 61 92 0.0 6.0 0.00 0.00 0.00 56 1009.6
20260903211702 61 155 3.0 8.0 0.00 0.00 0.00 50 1009.6
20260903211025 62 144 1.0 8.0 0.00 0.00 0.00 49 1009.7
20260903210537 62 142 4.0 8.0 0.00 0.00 0.00 46 1009.4
20260903210125 63 142 1.0 3.0 0.00 0.00 0.00 52 1009.5
20260903205528 63 88 0.0 4.0 0.00 0.00 0.00 51 1009.4
20260903205032 64 133 0.0 7.0 0.00 0.00 0.00 51 1009.4
20260903204642 64 74 1.0 10.0 0.00 0.00 0.00 47 1009.2
20260903204037 65 142 2.0 5.0 0.00 0.00 0.00 47 1009.1
20260903203531 66 136 1.0 6.0 0.00 0.00 0.00 47 1009.2
20260903203135 66 79 1.0 6.0 0.00 0.00 0.00 49 1009.2
20260903202542 68 127 2.0 6.0 0.00 0.00 0.00 44 1009.3
20260903202037 68 5 1.0 5.0 0.00 0.00 0.00 43 1009.1
20260903201652 69 116 2.0 5.0 0.00 0.00 0.00 44 1009.3
20260903201048 69 58 3.0 5.0 0.00 0.00 0.00 45 1009.3
20260903200543 68 346 1.0 5.0 0.00 0.00 0.00 45 1009.3
20260903200155 68 15 2.0 4.0 0.00 0.00 0.00 43 1009.3
20260903195525 68 191 2.0 4.0 0.00 0.00 0.00 46 1009.1
20260903195042 68 54 2.0 6.0 0.00 0.00 0.00 44 1009.1
20260903194717 67 121 2.0 9.0 0.00 0.00 0.00 43 1009.2
20260903194030 67 96 3.0 9.0 0.00 0.00 0.00 44 1008.9
20260903193545 67 198 2.0 6.0 0.00 0.00 0.00 41 1009.1
20260903193215 66 132 0.0 5.0 0.00 0.00 0.00 46 1008.9
20260903192539 66 15 1.0 5.0 0.00 0.00 0.00 45 1009.1
20260903192040 65 96 1.0 7.0 0.00 0.00 0.00 45 1008.9
20260903191714 65 182 1.0 7.0 0.00 0.00 0.00 44 1008.9
20260903191029 65 177 1.0 6.0 0.00 0.00 0.00 47 1009.0
20260903190525 65 360 1.0 6.0 0.00 0.00 0.00 44 1009.1
20260903190137 66 234 1.0 7.0 0.00 0.00 0.00 45 1009.0
20260903185529 66 186 2.0 7.0 0.00 0.00 0.00 46 1009.0
20260903185038 66 55 2.0 5.0 0.00 0.00 0.00 46 1009.1
20260903184626 66 199 1.0 6.0 0.00 0.00 0.00 44 1009.1
20260903184030 65 97 0.0 5.0 0.00 0.00 0.00 50 1009.0
20260903183529 65 90 0.0 6.0 0.00 0.00 0.00 45 1009.0
20260903183152 65 153 2.0 6.0 0.00 0.00 0.00 49 1009.0
20260903182552 65 32 0.0 5.0 0.00 0.00 0.00 47 1009.1
20260903182038 65 60 1.0 4.0 0.00 0.00 0.00 46 1009.0
20260903181700 65 175 0.0 4.0 0.00 0.00 0.00 47 1009.0
20260903181038 64 23 2.0 4.0 0.00 0.00 0.00 45 1008.9
20260903180542 64 127 0.0 3.0 0.00 0.00 0.00 49 1009.0
20260903180153 63 177 0.0 3.0 0.00 0.00 0.00 49 1008.8
20260903175545 64 5 0.0 4.0 0.00 0.00 0.00 44 1009.0
20260903175050 64 293 0.0 4.0 0.00 0.00 0.00 47 1008.8
20260903174726 64 319 1.0 3.0 0.00 0.00 0.00 44 1008.8
20260903174057 64 79 0.0 2.0 0.00 0.00 0.00 49 1009.0
20260903173532 63 165 0.0 3.0 0.00 0.00 0.00 46 1009.0
20260903173138 63 352 0.0 3.0 0.00 0.00 0.00 47 1008.9
20260903172529 62 360 0.0 2.0 0.00 0.00 0.00 46 1008.8
20260903172026 62 351 0.0 3.0 0.00 0.00 0.00 52 1008.7
20260903171634 61 306 0.0 4.0 0.00 0.00 0.00 52 1008.7
20260903171027 61 82 2.0 4.0 0.00 0.00 0.00 50 1008.8
20260903170542 60 69 1.0 4.0 0.00 0.00 0.00 54 1008.8
20260903170153 59 63 0.0 3.0 0.00 0.00 0.00 58 1008.8
20260903165538 58 68 1.0 3.0 0.00 0.00 0.00 66 1008.7
20260903165029 57 34 0.0 2.0 0.00 0.00 0.00 60 1008.7
20260903164635 57 48 0.0 2.0 0.00 0.00 0.00 72 1008.7
20260903164043 57 243 0.0 2.0 0.00 0.00 0.00 71 1008.6
20260903163526 56 13 1.0 2.0 0.00 0.00 0.00 74 1008.7
20260903163213 56 111 0.0 2.0 0.00 0.00 0.00 78 1008.6
20260903162534 55 30 0.0 2.0 0.00 0.00 0.00 82 1008.6
20260903162033 55 287 1.0 2.0 0.00 0.00 0.00 80 1008.6
20260903161624 54 30 0.0 0.0 0.00 0.00 0.00 85 1008.5
20260903161030 54 95 0.0 0.0 0.00 0.00 0.00 88 1008.6
20260903160540 54 90 0.0 0.0 0.00 0.00 0.00 86 1008.6
20260903160158 54 57 0.0 0.0 0.00 0.00 0.00 87 1008.6
20260903155546 53 80 0.0 0.0 0.00 0.00 0.00 89 1008.6
20260903155033 53 327 0.0 0.0 0.00 0.00 0.00 91 1008.6
20260903154716 52 217 0.0 0.0 0.00 0.00 0.00 91 1008.6
20260903154021 52 248 0.0 0.0 0.00 0.00 0.00 94 1008.8
20260903153536 51 248 0.0 0.0 0.00 0.00 0.00 94 1008.8
20260903153159 50 248 0.0 0.0 0.00 0.00 0.00 93 1008.8
20260903152524 50 248 0.0 0.0 0.00 0.00 0.00 92 1008.6
20260903152024 50 248 0.0 0.0 0.00 0.00 0.00 92 1008.7
20260903151624 50 248 0.0 0.0 0.00 0.00 0.00 93 1008.7
20260903151036 49 248 0.0 0.0 0.00 0.00 0.00 93 1008.7
20260903150525 49 248 0.0 0.0 0.00 0.00 0.00 93 1008.7
20260903150137 49 248 0.0 0.0 0.00 0.00 0.00 93 1008.7
20260903145537 49 248 0.0 0.0 0.00 0.00 0.00 92 1008.7
20260903145042 49 198 0.0 0.0 0.00 0.00 0.00 93 1008.6
20260903144635 49 198 0.0 0.0 0.00 0.00 0.00 93 1008.5
20260903144029 49 198 0.0 0.0 0.00 0.00 0.00 93 1008.7
20260903143541 49 198 0.0 0.0 0.00 0.00 0.00 93 1008.6
20260903143140 49 198 0.0 0.0 0.00 0.00 0.00 93 1008.5
20260903142533 49 296 0.0 0.0 0.00 0.00 0.00 94 1008.4
20260903142034 49 296 0.0 0.0 0.00 0.00 0.00 93 1008.3
20260903141654 49 296 0.0 0.0 0.00 0.00 0.00 93 1008.2
20260903141035 49 296 0.0 0.0 0.00 0.00 0.00 93 1008.3
20260903140536 49 296 0.0 0.0 0.00 0.00 0.00 93 1008.2
20260903140201 49 250 0.0 0.0 0.00 0.00 0.00 94 1008.2
20260903135522 49 246 0.0 0.0 0.00 0.00 0.00 94 1008.0
20260903135036 49 245 0.0 0.0 0.00 0.00 0.00 93 1007.9
20260903134637 49 296 0.0 0.0 0.00 0.00 0.00 93 1007.9
20260903134026 49 296 0.0 0.0 0.00 0.00 0.00 93 1007.7
20260903133528 49 304 0.0 1.0 0.00 0.00 0.00 94 1007.9
20260903133203 49 304 0.0 2.0 0.00 0.00 0.00 94 1007.9
20260903132527 49 304 0.0 2.0 0.00 0.00 0.00 94 1007.9
20260903132023 49 272 0.0 0.0 0.00 0.00 0.00 93 1007.8
20260903131635 49 246 0.0 0.0 0.00 0.00 0.00 94 1007.9
20260903131025 50 282 0.0 0.0 0.00 0.00 0.00 94 1007.9
20260903130541 50 282 0.0 0.0 0.00 0.00 0.00 95 1007.8
20260903130131 50 267 0.0 0.0 0.00 0.00 0.00 95 1007.8
20260903125547 50 266 0.0 0.0 0.00 0.00 0.00 95 1007.8
20260903125025 50 266 0.0 0.0 0.00 0.00 0.00 95 1007.7
20260903124626 50 266 0.0 0.0 0.00 0.00 0.00 95 1007.6
20260903124036 50 266 0.0 0.0 0.00 0.00 0.00 95 1007.7
20260903123523 50 266 0.0 0.0 0.00 0.00 0.00 95 1007.6
20260903123152 50 266 0.0 0.0 0.00 0.00 0.00 95 1007.6
20260903122524 50 278 0.0 0.0 0.00 0.00 0.00 95 1007.5
20260903122030 50 278 0.0 0.0 0.00 0.00 0.00 95 1007.5
20260903121632 51 278 0.0 0.0 0.00 0.00 0.00 95 1007.6
20260903121037 51 278 0.0 0.0 0.00 0.00 0.00 95 1007.7
20260903120527 51 278 0.0 0.0 0.00 0.00 0.00 95 1007.5
20260903120127 51 277 0.0 1.0 0.00 0.00 0.00 95 1007.6
20260903115542 51 239 0.0 1.0 0.00 0.00 0.00 95 1007.6
20260903115042 51 236 0.0 0.0 0.00 0.00 0.00 95 1007.6
20260903114632 51 231 0.0 0.0 0.00 0.00 0.00 95 1007.6
20260903114027 51 231 0.0 2.0 0.00 0.00 0.00 95 1007.6
20260903113541 51 231 0.0 2.0 0.00 0.00 0.00 95 1007.6
20260903113138 51 290 0.0 2.0 0.00 0.00 0.00 95 1007.5
20260903112526 51 306 0.0 2.0 0.00 0.00 0.00 94 1007.6
20260903112025 51 292 0.0 0.0 0.00 0.00 0.00 95 1007.4
20260903111717 51 261 0.0 0.0 0.00 0.00 0.00 94 1007.3
20260903111032 51 301 0.0 0.0 0.00 0.00 0.00 94 1007.4
20260903110540 51 301 0.0 0.0 0.00 0.00 0.00 94 1007.2
20260903110145 51 241 0.0 0.0 0.00 0.00 0.00 94 1007.3
20260903105521 51 241 0.0 0.0 0.00 0.00 0.00 94 1007.1
20260903105036 51 241 0.0 0.0 0.00 0.00 0.00 94 1007.2
20260903104638 51 241 0.0 0.0 0.00 0.00 0.00 94 1007.2
20260903104026 51 241 0.0 0.0 0.00 0.00 0.00 94 1007.2
20260903103544 51 241 0.0 0.0 0.00 0.00 0.00 94 1007.4
20260903103105 51 241 0.0 0.0 0.00 0.00 0.00 94 1007.3
20260903102546 51 187 0.0 0.0 0.00 0.00 0.00 93 1007.5
20260903102036 51 152 0.0 0.0 0.00 0.00 0.00 93 1007.5
20260903101651 51 128 0.0 0.0 0.00 0.00 0.00 92 1007.3
20260903101042 51 128 0.0 0.0 0.00 0.00 0.00 92 1007.3
20260903100533 51 128 0.0 0.0 0.00 0.00 0.00 92 1007.4
20260903100201 51 119 0.0 0.0 0.00 0.00 0.00 91 1007.3
20260903095545 51 262 0.0 0.0 0.00 0.00 0.00 91 1007.3
20260903095042 52 262 0.0 0.0 0.00 0.00 0.00 90 1007.2
20260903094646 52 190 0.0 0.0 0.00 0.00 0.00 89 1007.2
20260903094043 52 232 0.0 0.0 0.00 0.00 0.00 88 1007.1
20260903093530 53 234 0.0 0.0 0.00 0.00 0.00 87 1007.1
20260903093135 53 234 0.0 0.0 0.00 0.00 0.00 85 1006.9
20260903092524 53 234 0.0 0.0 0.00 0.00 0.00 85 1006.9
20260903092046 53 234 0.0 0.0 0.00 0.00 0.00 84 1007.0
20260903091614 53 234 0.0 0.0 0.00 0.00 0.00 84 1006.8
20260903091043 53 234 0.0 0.0 0.00 0.00 0.00 83 1006.9